COSMOS 2251 DEB, 33795

Orbit data source: Space-Track

COSMOS 2251 DEB, 33795 is space debris in LEO originally from a launch on Wed, 16 Jun 1993 UTC launched from the Plesetsk Missile And Space Complex (PKMTR). The debris from Iridium 33, an American commercial communications satellite, has been tracked extensively since its accidental collision with the defunct Russian satellite Cosmos 2251 in 2009. This event, occurring at high speed in low Earth orbit (LEO), generated thousands of pieces of space debris, significantly increasing the risk of further collisions. The Iridium 33 debris cloud has impacted space traffic management and orbital debris mitigation strategies, making it a subject of ongoing study in space situational awareness.

Loading next visibility...
Identifier
33795, 1993-036AL
Orbit
LEO
Country
Flag of CISCIS
Related business
Manufacturer
Unknown
Mission
Spacecraft
Bus & Motor
Unknown
Mass
Unknown
Launch date (UTC)
1993-06-16 (33 years ago)
Launch vehicle
Unknown
Launch site
Plesetsk Missile And Space Complex (PKMTR)
Object type
Payload
Rocket body
Debris
Shape & HBR
Unknown shape, 0.2 m
Radar Cross Section
Medium (>0.1 m² and <1 m²)

Expand to show TLE details & history
Last TLE update: 20 hours ago

TLE from 20 hours ago
0 COSMOS 2251 DEB
1 33795U 93036AL  26168.10215508  .00017906  00000-0  95127-3 0  9993
2 33795  74.0465  51.7022 0028845  97.8222  24.1735 15.14909107928355
Epoch: 2026-06-17T02:27Z
TLE epoch observation values (Epoch: 2026-06-17T02:27:06.198Z)
Latitude
54.62266°
Longitude
-94.03984°
Altitude
511.794 km
Speed
7.624 km/s
True Right ascension
13h 52m 24s
True Declination
54° 27' 16"
Sunlit
Object was in daylight at epoch
Visualization orbit readout
Latitude
Unknown
Longitude
Unknown
Altitude
Unknown
Speed
Unknown
Apparent Right ascension
Unknown
Apparent Declination
Unknown
Sunlit
N/A
Visualization observer readout
Local Sidereal Time
08:57:20
Azimuth
Unknown
Elevation
Unknown
Doppler factor
Unknown
Orbital elements
Apogee altitude
538.685 km
Perigee altitude
498.897 km
Semi-major axis
6,896.928 km
Eccentricity
0.00288
Inclination
74.0465°
RAAN
51.7022°
Arg. of periapsis
97.8222°
True anomaly
24.3093°
Mean anomaly
24.1735°
Eccentric anomaly
24.24136°
Mean motion
3.78931 °/min
Orbital period
95 mins
BSTAR
0.00095127

Documentation

Showing up to 5 results
|